LiveATC.Net - Listen to live air traffic control over the Internet!


ICAO: KDVO  IATA: DVO   Airport: Gnoss Field Airport
City: Novato   State/Province: California
Country: United States   Continent: North America
KDVO METAR Weather: KDVO 181215Z AUTO 00000KT 10SM CLR 04/04 A3011 RMK AO2
KDVO Flight Activity (FlightAware)
KDVO Webcam:  (Airport Webcams) 
KDVO Airport Info   (iFlightPlanner)
KDVO VFR Sectional Chart   (iFlightPlanner) 
KDVO IFR Low Chart   (iFlightPlanner) 

KDVO CTAF
Feed Status: UP   Listeners: 0
Listen in your browser - HTML5 player (in browser, HTML5)
Click here to listen with your own player (launches your MP3 player)
Archive Access: KDVO CTAF
FacilityFrequency
Novato CTAF123.075

NOTICE

Unauthorized use prohibited. See LiveATC.net Terms of Service


Airport/ARTCC Code
Frequency Search
(e.g., 124.400, 128.75)
Site-wide search
 


Browse Feeds
Top 50 Feeds
HF Oceanic Feeds
Coverage Map
Bad Weather Areas

LiveATC FAQ
Offer LiveATC feed
Contact LiveATC.net
Press Inquiries

LiveATC on iPhone
LiveATC on Android

Windows Phone
Windows 8/10

LiveATC Mobile
(Mobile browser)

ATC Audio Archives
Interesting Recordings

LiveATC Forums


Home Page
About LiveATC.net
Make a Donation
Terms of Use
Privacy Policy

Canadian Air Freqs

AIRMETs/SIGMETs

FAA Airport Status
Nat'l Airspace Status
Arrival Demand Charts


Server Software By:
Icecast.org
Liquidsoap